This is the latest recevied weather packets stored in our database for station/object VK4GDW-13. If no packets are shown the sender has not sent any weather packets the latest 10 day(s).
| Time | Temp. | Humidity | Pressure | Rain* | Wind** | Luminosity | Snow |
|---|---|---|---|---|---|---|---|
| 1787873078 | 23.33° C | 44% | 1029.9 hPa | 0 mm | - | - | - |
| 1787872768 | 23.33° C | 45% | 1029.8 hPa | 0 mm | - | - | - |
| 1787872465 | 22.22° C | 48% | 1029.9 hPa | 0 mm | - | - | - |
| 1787872162 | 21.11° C | 50% | 1029.9 hPa | 0 mm | - | - | - |
| 1787871859 | 20° C | 53% | 1030 hPa | 0 mm | - | - | - |
| 1787871556 | 18.89° C | 56% | 1029.9 hPa | 0 mm | - | - | - |
| 1787871253 | 18.33° C | 57% | 1030.1 hPa | 0 mm | - | - | - |
| 1787870950 | 17.78° C | 57% | 1030 hPa | 0 mm | - | - | - |
| 1787870647 | 17.78° C | 58% | 1030 hPa | 0 mm | - | - | - |
| 1787870344 | 17.22° C | 58% | 1030 hPa | 0 mm | - | - | - |
| 1787870040 | 16.67° C | 59% | 1029.9 hPa | 0 mm | - | - | - |
| 1787869737 | 16.67° C | 60% | 1030 hPa | 0 mm | - | - | - |
| 1787869434 | 16.11° C | 61% | 1030 hPa | 0 mm | - | - | - |
| 1787869131 | 15.56° C | 61% | 1029.9 hPa | 0 mm | - | - | - |
| 1787868828 | 15.56° C | 62% | 1029.8 hPa | 0 mm | - | - | - |
| 1787868525 | 15° C | 63% | 1029.8 hPa | 0 mm | - | - | - |
| 1787868221 | 14.44° C | 63% | 1029.8 hPa | 0 mm | - | - | - |
| 1787867918 | 14.44° C | 64% | 1029.8 hPa | 0 mm | - | - | - |
| 1787867615 | 13.89° C | 65% | 1029.6 hPa | 0 mm | - | - | - |
| 1787867312 | 13.89° C | 65% | 1029.6 hPa | 0 mm | - | - | - |
| 1787867009 | 13.33° C | 66% | 1029.6 hPa | 0 mm | - | - | - |
| 1787866706 | 12.78° C | 66% | 1029.5 hPa | 0 mm | - | - | - |
| 1787866403 | 12.78° C | 67% | 1029.5 hPa | 0 mm | - | - | - |
| 1787866100 | 12.22° C | 67% | 1029.5 hPa | 0 mm | - | - | - |
| 1787865797 | 11.67° C | 67% | 1029.3 hPa | 0 mm | - | - | - |
* Rain since midnight (hover to see other rain measurements)
** Current wind speed in m/s (hover to see current wind gust speed)